Regional Weather Roundup
Issued by NWS Albany, NY

Home | Current Version | Previous Version | Graphics & Text | Print | Product List | Glossary On
Versions: 1 2 3 4 5 6 7 8 9 10 11 12 13 14 15 16 17 18 19 20 21 22 23 24 25 26 27 28 29 30 31 32 33 34 35 36 37 38 39 40 41 42 43 44 45 46 47 48 49 50
000
ASUS41 KALY 211310
RWRALY

NEW YORK STATE HOURLY WEATHER ROUNDUP
NATIONAL WEATHER SERVICE ALBANY NY
900 AM EDT THU AUG 21 2014

NOTE: "FAIR" INDICATES FEW OR NO CLOUDS BELOW 12,000 FEET WITH NO
SIGNIFICANT WEATHER AND/OR NO OBSTRUCTIONS TO VISIBILITY.

NYZ032-033-038>043-046>054-057>066-NYZ062>081-211400-
EAST


CITY           SKY/WX    TMP DP  RH WIND       PRES   REMARKS
ALBANY         CLOUDY    67  63  87 SE3       30.04S
GLENS FALLS    CLOUDY    66  63  90 SW3       30.05S
POUGHKEEPSIE   PTSUNNY   70  65  84 VRB3      30.05S
NEWBURGH       PTSUNNY   68  66  94 CALM      30.08S
MONTGOMERY     CLOUDY    68  64  87 CALM      30.06S
WHITE PLAINS   MOSUNNY   70  64  81 E3        30.07R
ISLIP          CLOUDY    71  62  73 E6        30.06R
NEW YORK CITY  MOSUNNY   74  64  71 CALM      30.06R
CENTRAL PARK   MOSUNNY   72  64  76 CALM      30.09S
$$

NYZ005>009-017-018-044>046-055-056-211400-
CENTRAL


CITY           SKY/WX    TMP DP  RH WIND       PRES   REMARKS
FULTON         MOSUNNY   72  68  87 VRB5      29.98S THUNDER
SYRACUSE       PTSUNNY   71  68  90 SE3       29.97F
ROME           CLOUDY    69  68  96 E5        30.02R
ELMIRA         PTSUNNY   68  68 100 CALM      30.01F FOG
BINGHAMTON     CLOUDY    68  66  94 SW6       30.05S
MONTICELLO     CLOUDY    63  63 100 S5        30.10S THUNDER
$$

NYZ026>034-041>043-211400-
NORTH


CITY           SKY/WX    TMP DP  RH WIND       PRES   REMARKS
WATERTOWN      MOSUNNY   74  66  76 S5        29.96S
FORT DRUM      NOT AVBL
MASSENA        PTSUNNY   69  67  93 E6        30.00F
SARANAC LAKE   PTSUNNY   67  63  87 CALM      30.04S
PLATTSBURGH    LGT RAIN  67  65  93 SE10      30.03F
$$

NYZ001>004-010>016-019>021-211400-
WEST


CITY           SKY/WX    TMP DP  RH WIND       PRES   REMARKS
NIAGARA FALLS  MOSUNNY   72  66  81 SW12      29.96S
BUFFALO        MOSUNNY   73  67  81 SW14      29.97S
DUNKIRK        MOSUNNY   72  66  81 SW8       30.00S
JAMESTOWN      CLOUDY    64  61  88 SW8       30.05S
WELLSVILLE     PTSUNNY   68  63  84 SW8       30.07S
ROCHESTER      MOSUNNY   72  67  84 SW7       29.96F
PENN YAN       MOSUNNY   71  67  87 SW10      30.00F
$$

             KEY
       WCI = WIND CHILL INDEX
       VSB = VISIBILITY
       HX  = HEAT INDEX
$$


USA.gov is the U.S. government's official web portal to all federal, state and local government web resources and services.